Stations météo

réclame
Mon MeteoGroup
Gueret-St Laurent, France (7361): Température de l'air & dewpoint: 11.01.2018 07:00:00 - 17.01.2018 07:00:00 (CET)Gueret-St Laurent, France (7361): Température de l'air 5cm: 11.01.2018 07:00:00 - 17.01.2018 07:00:00 (CET)Gueret-St Laurent, France (7361): Température de l'air -20cm & Température de l'air -100cm: 11.01.2018 07:00:00 - 17.01.2018 07:00:00 (CET)Gueret-St Laurent, France (7361): Vitesse du vent & gusts: 11.01.2018 07:00:00 - 17.01.2018 07:00:00 (CET)Gueret-St Laurent, France (7361): Direction du vent: 11.01.2018 07:00:00 - 17.01.2018 07:00:00 (CET)Gueret-St Laurent, France (7361): reduced air pressure: 11.01.2018 07:00:00 - 17.01.2018 07:00:00 (CET)Gueret-St Laurent, France (7361): visibility: 11.01.2018 07:00:00 - 17.01.2018 07:00:00 (CET)Gueret-St Laurent, France (7361): Ensoleillement: 11.01.2018 07:00:00 - 17.01.2018 07:00:00 (CET)Gueret-St Laurent, France (7361): Quantités de précipitations: 11.01.2018 07:00:00 - 17.01.2018 07:00:00 (CET)
Date & Time tt [°C] td [°C] tt 5cm [°C] tt -20cm [°C] tt -100cm [°C] ff [km/h] ff [knt] fx [km/h] fx [knt] dd ppp [hPa] vv [km] sd [min] rr [mm]
17.01.2018 07:00:00 4,6 1,3 3,9 7,7 8,9 18 10 44 24 W 1016,2 20 0 0,0
17.01.2018 06:00:00 4,6 1,3 3,5 7,7 8,9 15 8 39 21 W 1014,9 20 0 0,0
17.01.2018 05:00:00 5,1 1,6 4,2 7,7 8,9 17 9 53 29 W 1014,0 20 0 0,0
17.01.2018 04:00:00 5,6 1,1 3,8 7,7 8,9 21 11 55 30 W 1012,8 20 0 0,0
17.01.2018 03:00:00 5,5 2,1 3,8 7,7 8,9 17 9 48 26 W 1012,2 20 0 0,0
17.01.2018 02:00:00 5,6 3,8 4,1 7,7 8,9 19 11 50 27 W 1011,9 11 0 0,8
17.01.2018 01:00:00 5,3 3,0 4,2 7,7 8,9 24 13 74 40 W 1011,4 4,2 0 2,0
17.01.2018 00:00:00 7,5 3,9 5,4 7,7 8,9 21 11 54 29 WSW 1010,1 20 0 0,0
16.01.2018 23:00:00 6,8 3,8 5,5 7,7 8,9 23 12 85 46 W 1010,2 17 0 0,6
16.01.2018 22:00:00 7,9 5,2 7,0 7,7 8,9 15 8 44 24 WSW 1010,0 18 0 0,0
16.01.2018 21:00:00 8,1 5,2 7,1 7,6 8,9 21 11 55 30 W 1010,5 20 0 0,2
16.01.2018 20:00:00 8,4 6,0 7,4 7,6 8,9 20 11 49 26 W 1010,0 9 0 1,2
16.01.2018 19:00:00 9,0 5,0 7,5 7,5 8,9 19 11 51 28 WSW 1009,9 20 0 0,0
16.01.2018 18:00:00 9,2 6,1 8,1 7,5 8,9 22 12 65 35 WSW 1009,9 20 0 0,0
16.01.2018 17:00:00 9,5 8,1 8,9 7,4 8,9 19 11 48 26 W 1009,9 4,0 0 1,6
16.01.2018 16:00:00 10,6 7,5 9,5 7,4 8,9 23 12 49 26 WSW 1009,8 19 7 0,2
16.01.2018 15:00:00 10,1 8,5 9,6 7,4 8,9 18 10 61 33 W 1010,4 5 4 1,2
16.01.2018 14:00:00 11,1 8,3 10,0 7,4 8,9 24 13 58 31 WSW 1010,5 20 4 0,0
16.01.2018 13:00:00 10,6 8,2 9,2 7,3 8,9 17 9 55 30 WSW 1011,6 19 4 0,6
16.01.2018 12:00:00 9,8 7,9 8,9 7,3 8,9 22 12 56 31 WSW 1012,6 7 0 1,2
16.01.2018 11:00:00 9,3 7,2 8,8 7,3 8,9 13 7 50 27 SW 1012,7 16 0 0,0
16.01.2018 10:00:00 9,4 6,3 8,8 7,2 8,9 18 10 53 28 W 1012,8 20 0 0,0
16.01.2018 09:00:00 9,5 5,7 7,8 7,2 8,9 23 12 63 34 W 1012,0 20 0 0,0
16.01.2018 08:00:00 8,8 5,9 7,4 7,2 8,9 15 8 50 27 WSW 1011,1 20 0 0,0
16.01.2018 07:00:00 9,0 5,9 7,4 7,2 8,9 19 10 54 29 WSW 1010,7 20 0 0,0
16.01.2018 06:00:00 9,0 6,8 8,0 7,2 8,9 20 11 48 26 W 1010,5 20 0 0,2
16.01.2018 05:00:00 9,1 6,7 7,9 7,1 8,9 21 11 51 28 WSW 1010,7 20 0 0,6
16.01.2018 04:00:00 8,9 7,0 8,0 7,1 8,9 15 8 42 23 WSW 1010,6 8 0 0,0
16.01.2018 03:00:00 9,2 6,8 7,9 7,1 8,9 15 8 42 23 WSW 1010,8 20 0 0,4
16.01.2018 02:00:00 9,1 6,7 7,6 7,1 8,9 22 12 45 24 WSW 1010,5 20 0 0,4
16.01.2018 01:00:00 8,1 6,9 7,2 7,1 8,9 14 7 40 21 SW 1011,2 3,1 0 0,4
16.01.2018 00:00:00 7,7 6,5 7,1 7,1 8,9 18 10 42 23 SSW 1011,2 6 0 0,4
15.01.2018 23:00:00 7,8 5,9 6,5 7,1 8,9 21 11 52 28 SW 1011,4 17 0 0,0
15.01.2018 22:00:00 7,3 5,6 6,5 7,1 8,9 21 11 65 35 SSW 1011,7 2,9 0 0,6
15.01.2018 21:00:00 7,6 5,4 6,5 7,0 8,9 24 13 61 33 SSW 1011,2 16 0 0,2
15.01.2018 20:00:00 7,4 5,5 6,1 7,0 9,0 21 11 63 34 SSW 1011,5 3,3 0 0,4
15.01.2018 19:00:00 7,2 4,7 5,9 7,0 8,9 39 21 93 50 SSW 1010,9 7 0 0,4
15.01.2018 18:00:00 7,1 4,6 5,9 7,0 8,9 31 17 60 33 SSW 1011,7 10 0 0,2
15.01.2018 17:00:00 7,0 4,3 5,8 7,0 8,9 25 14 62 34 SSW 1012,2 11 10 0,2
15.01.2018 16:00:00 7,2 4,3 5,9 7,0 9,0 22 12 62 33 SSW 1013,6 17 4 0,2
15.01.2018 15:00:00 6,7 4,0 6,0 7,0 9,0 18 10 43 23 SSW 1015,2 16 0 0,0
15.01.2018 14:00:00 6,9 3,7 6,8 7,0 9,0 20 11 41 22 SSW 1016,8 20 0 0,0
15.01.2018 13:00:00 6,7 3,8 6,4 7,0 9,0 18 10 40 22 SSW 1017,5 20 0 0,0
15.01.2018 12:00:00 6,2 3,9 6,2 7,0 9,0 19 10 41 22 SSW 1018,4 20 0 0,0
15.01.2018 11:00:00 6,0 3,3 5,9 7,0 9,0 22 12 39 21 S 1019,0 20 9 0,0
15.01.2018 10:00:00 5,9 3,2 5,1 7,0 9,0 16 9 35 19 S 1019,9 20 3 0,0
15.01.2018 09:00:00 5,6 2,4 5,0 7,0 9,0 24 13 36 20 S 1020,0 20 0 0,0
15.01.2018 08:00:00 5,8 2,1 5,0 7,1 9,0 12 6 40 22 SSW 1020,3 20 0 0,0
15.01.2018 07:00:00 5,6 2,1 4,8 7,1 9,0 18 10 35 19 S 1019,7 20 0 0,0
15.01.2018 06:00:00 5,7 2,2 4,6 7,1 9,0 9 5 19 10 SSW 1020,1 20 0 0,0
15.01.2018 05:00:00 5,3 2,6 0,9 7,1 9,0 6 3 22 12 SSW 1020,6 20 0 0,0
15.01.2018 04:00:00 2,4 1,1 -1,4 7,1 9,0 4 2 15 8 ESE 1021,4 20 0 0,0
15.01.2018 03:00:00 1,6 0,9 -1,4 7,1 9,0 3 2 12 6 E 1021,4 15 0 0,0
15.01.2018 02:00:00 2,8 1,3 -0,9 7,1 9,0 3 2 8 4 SE 1021,6 20 0 0,0
15.01.2018 01:00:00 4,5 3,3 3,6 7,1 9,0 6 3 10 5 E 1021,5 20 0 0,0
15.01.2018 00:00:00 4,3 3,1 3,5 7,1 9,0 3 2 6 4 ESE 1021,9 20 0 0,0
14.01.2018 23:00:00 4,3 3,0 3,5 7,1 9,0 3 1 6 3 ESE 1021,8 20 0 0,0
14.01.2018 22:00:00 4,7 2,7 4,1 7,0 9,0 2 1 8 4 E 1021,5 20 0 0,0
14.01.2018 21:00:00 5,3 2,6 2,8 7,0 9,0 0 0 6 4 N 1020,5 20 0 0,0
14.01.2018 20:00:00 5,6 1,7 1,1 7,0 9,0 5 3 13 7 SSW 1019,8 20 0 0,0
14.01.2018 19:00:00 7,2 2,5 4,7 7,0 9,0 5 3 9 5 S 1018,7 20 0 0,0
14.01.2018 18:00:00 7,6 3,1 6,5 6,9 9,0 5 3 11 6 SSW 1018,0 20 0 0,0
14.01.2018 17:00:00 8,5 2,9 7,8 6,9 9,0 7 4 13 7 SSW 1017,2 20 0 0,0
14.01.2018 16:00:00 9,2 4,2 9,5 6,9 9,0 3 2 7 4 SW 1016,8 20 7 0,0
14.01.2018 15:00:00 9,0 4,2 9,4 6,8 9,0 2 1 10 5 E 1016,0 20 3 0,0
14.01.2018 14:00:00 9,1 4,7 10,3 6,8 9,0 6 3 16 9 E 1015,9 20 31 0,0
14.01.2018 13:00:00 8,1 4,5 10,2 6,9 9,0 9 5 13 7 E 1016,3 20 43 0,0
14.01.2018 12:00:00 6,8 4,9 6,7 6,9 9,0 3 1 5 3 SE 1017,1 20 6 0,0
14.01.2018 11:00:00 5,5 4,5 4,6 6,9 9,1 0 0 3 1 N 1017,1 19 14 0,0
14.01.2018 10:00:00 3,6 3,3 3,0 6,9 9,0 2 1 5 3 ESE 1017,1 10 0 0,2
14.01.2018 09:00:00 2,9 2,5 2,5 6,9 9,0 0 0 4 2 N 1016,7 6 0 0,4
14.01.2018 08:00:00 2,5 2,1 1,4 7,0 9,1 2 1 4 2 ESE 1016,4 7 0 0,0
14.01.2018 07:00:00 1,9 1,3 0,9 7,0 9,1 0 0 4 2 N 1016,0 14 0 0,0
14.01.2018 06:00:00 2,2 1,5 1,5 7,0 9,0 0 0 7 4 N 1015,7 12 0 0,0
14.01.2018 05:00:00 2,2 1,5 1,3 7,0 9,1 2 1 11 6 ESE 1015,7 16 0 0,0
14.01.2018 04:00:00 2,4 1,7 1,0 7,0 9,1 9 5 11 6 E 1015,4 19 0 0,0
14.01.2018 03:00:00 2,3 1,3 1,1 7,1 9,1 0 0 13 7 N 1015,7 18 0 0,0
14.01.2018 02:00:00 2,4 1,7 0,8 7,1 9,1 5 3 8 5 ESE 1015,6 18 0 0,0
14.01.2018 01:00:00 2,1 1,1 0,1 7,1 9,1 3 2 10 5 E 1015,8 18 0 0,0
14.01.2018 00:00:00 2,7 1,1 1,0 7,1 9,0 4 2 13 7 E 1015,9 20 0 0,0
13.01.2018 23:00:00 2,8 1,8 1,9 7,1 9,1 5 3 13 7 E 1015,7 17 0 0,0
13.01.2018 22:00:00 3,0 2,3 2,3 7,1 9,1 8 4 15 8 ESE 1015,6 13 0 0,0
13.01.2018 21:00:00 2,7 2,4 0,0 7,1 9,1 8 4 11 6 ESE 1015,9 11 0 0,0
13.01.2018 20:00:00 1,8 1,2 -0,6 7,1 9,1 5 3 8 4 ESE 1016,0 6 0 0,0
13.01.2018 19:00:00 2,2 1,2 -0,5 7,1 9,1 0 0 4 2 N 1016,1 8 0 0,0
13.01.2018 18:00:00 3,8 2,0 -0,1 7,1 9,1 2 1 6 3 ESE 1015,7 16 0 0,0
13.01.2018 17:00:00 5,7 2,7 4,8 7,1 9,1 5 3 6 4 SSE 1015,5 20 0 0,0
13.01.2018 16:00:00 6,3 2,6 6,7 7,1 9,1 0 0 8 5 N 1015,4 20 0 0,0
13.01.2018 15:00:00 6,5 2,4 7,9 7,0 9,1 4 2 8 4 SE 1015,6 20 0 0,0
13.01.2018 14:00:00 6,1 3,1 8,4 7,1 9,1 4 2 9 5 ESE 1016,0 20 13 0,0
13.01.2018 13:00:00 4,9 2,9 5,2 7,1 9,1 3 2 9 5 ENE 1017,4 16 24 0,0
13.01.2018 12:00:00 2,9 1,6 5,9 7,2 9,1 4 2 11 6 ESE 1018,3 14 37 0,0
13.01.2018 11:00:00 1,6 1,5 1,4 7,2 9,1 5 3 9 5 E 1019,2 8 29 0,0
13.01.2018 10:00:00 0,0 -0,1 -0,2 7,2 9,1 4 2 6 3 E 1019,8 1,0 34 0,0
13.01.2018 09:00:00 -0,3 -0,4 -0,3 7,3 9,1 5 3 9 5 SSE 1020,0 1,4 0 0,0
13.01.2018 08:00:00 -0,4 -0,5 -0,2 7,4 9,1 4 2 14 7 SSE 1020,6 1,8 0 0,0
13.01.2018 07:00:00 -0,5 -0,6 -0,2 7,4 9,1 6 4 10 6 ESE 1020,9 0,3 0 0,0
13.01.2018 06:00:00 -0,4 -0,5 -0,1 7,4 9,1 3 2 10 6 SSE 1021,6 0,2 0 0,0
13.01.2018 05:00:00 -0,2 -0,3 -0,1 7,5 9,1 4 2 6 3 SSE 1022,0 0,5 0 0,0
13.01.2018 04:00:00 -0,2 -0,3 0,0 7,5 9,1 5 3 13 7 SSE 1022,9 0,2 0 0,0
13.01.2018 03:00:00 0,4 0,3 -0,2 7,5 9,1 8 4 15 8 SE 1023,4 1,1 0 0,0
13.01.2018 02:00:00 -0,2 -0,3 -0,9 7,6 9,1 5 3 13 7 E 1023,9 0,6 0 0,0
13.01.2018 01:00:00 -0,7 -0,8 -2,2 7,6 9,1 4 2 7 4 E 1024,7 0,2 0 0,0
13.01.2018 00:00:00 -0,8 -1,1 -2,9 7,6 9,1 6 3 8 5 ESE 1025,3 0,1 0 0,0
12.01.2018 23:00:00 -0,4 -0,8 -3,1 7,6 9,1 0 0 7 4 N 1025,6 0,2 0 0,0
12.01.2018 22:00:00 0,7 0,0 -2,5 7,7 9,1 0 0 4 2 N 1025,8 0,2 0 0,0
12.01.2018 21:00:00 2,5 1,6 -0,6 7,6 9,1 2 1 6 3 S 1025,5 5 0 0,0
12.01.2018 20:00:00 4,4 2,9 2,6 7,6 9,1 0 0 6 3 N 1025,0 10 0 0,0
12.01.2018 19:00:00 4,8 3,3 3,0 7,6 9,1 3 2 5 3 W 1024,9 12 0 0,0
12.01.2018 18:00:00 5,5 3,0 4,9 7,6 9,1 4 2 5 3 NE 1024,7 20 0 0,0
12.01.2018 17:00:00 6,1 2,7 5,6 7,6 9,1 0 0 9 5 N 1024,6 20 0 0,0
12.01.2018 16:00:00 6,5 2,6 6,7 7,6 9,1 7 4 14 8 N 1024,3 20 4 0,0
12.01.2018 15:00:00 7,3 3,7 7,5 7,6 9,1 13 7 17 9 NE 1024,0 20 23 0,0
12.01.2018 14:00:00 6,3 4,1 6,0 7,6 9,1 4 2 9 5 N 1024,6 19 0 0,0
12.01.2018 13:00:00 5,7 3,7 5,9 7,6 9,1 4 2 16 8 N 1025,3 13 0 0,0
12.01.2018 12:00:00 5,3 4,3 5,5 7,6 9,1 8 5 17 9 NNE 1025,7 9 0 0,0
12.01.2018 11:00:00 5,1 4,4 5,0 7,6 9,1 6 3 16 9 N 1025,7 12 0 0,0
12.01.2018 10:00:00 4,9 4,5 4,7 7,6 9,1 5 3 9 5 NNW 1025,3 7 0 0,2
12.01.2018 09:00:00 4,7 4,4 4,4 7,6 9,1 3 2 8 4 NW 1024,8 3,2 0 0,0
12.01.2018 08:00:00 4,5 4,1 4,3 7,7 9,1 3 2 11 6 WNW 1024,4 9 0 0,0
12.01.2018 07:00:00 4,4 4,0 4,2 7,7 9,1 5 3 12 6 WNW 1024,0 6 0 0,0
12.01.2018 06:00:00 4,4 4,0 4,3 7,7 9,1 5 3 13 7 WNW 1023,7 5 0 0,2
12.01.2018 05:00:00 4,6 4,2 4,6 7,7 9,1 6 4 18 10 NW 1023,3 7 0 0,2
12.01.2018 04:00:00 4,8 4,5 4,5 7,7 9,1 9 5 20 11 NNW 1023,1 8 0 0,2
12.01.2018 03:00:00 4,5 4,1 4,2 7,7 9,1 2 1 13 7 NW 1023,1 2,9 0 0,8
12.01.2018 02:00:00 4,2 3,9 3,7 7,8 9,1 4 2 10 6 NW 1022,8 7 0 0,8
12.01.2018 01:00:00 3,7 3,4 3,2 7,8 9,1 2 1 5 3 E 1023,0 3,9 0 0,0
12.01.2018 00:00:00 3,4 3,1 2,3 7,8 9,1 3 1 6 4 E 1022,8 8 0 0,0
11.01.2018 23:00:00 3,0 2,6 1,5 7,8 9,1 0 0 5 3 N 1022,3 2,0 0 0,0
11.01.2018 22:00:00 3,1 2,7 2,3 7,8 9,1 3 1 4 2 E 1022,3 5 0 0,2
11.01.2018 21:00:00 2,9 2,2 0,0 7,8 9,1 0 0 4 2 N 1021,9 0,5 0 0,0
11.01.2018 20:00:00 3,6 2,7 0,1 7,8 9,1 3 2 4 2 E 1021,3 0,5 0 0,0
11.01.2018 19:00:00 5,0 3,5 3,6 7,8 9,1 0 0 11 6 N 1020,4 18 0 1,0
11.01.2018 18:00:00 4,7 2,9 1,2 7,8 9,1 3 2 11 6 NNW 1019,9 19 1 0,0
11.01.2018 17:00:00 5,7 2,2 3,5 7,7 9,1 2 1 8 4 SW 1018,7 20 7 0,0
11.01.2018 16:00:00 8,2 2,6 8,5 7,7 9,1 5 3 12 6 WSW 1017,6 20 32 0,0
11.01.2018 15:00:00 7,3 3,5 8,1 7,7 9,1 0 0 6 4 N 1017,0 20 0 0,0
11.01.2018 14:00:00 7,4 3,6 7,9 7,7 9,1 4 2 13 7 N 1016,4 20 4 0,0
11.01.2018 13:00:00 8,6 3,8 8,8 7,7 9,1 4 2 11 6 S 1016,1 20 34 0,0
11.01.2018 12:00:00 6,8 3,4 8,1 7,7 9,1 7 4 18 10 SW 1016,4 20 31 0,0
11.01.2018 11:00:00 6,8 3,9 5,6 7,7 9,1 4 2 14 7 SW 1015,6 20 15 0,0
11.01.2018 10:00:00 5,3 3,8 4,7 7,7 9,1 2 1 15 8 SSW 1015,1 20 0 0,0
11.01.2018 09:00:00 5,2 3,2 4,5 7,8 9,1 2 1 10 6 SW 1014,2 14 0 0,2
11.01.2018 08:00:00 5,6 3,3 4,8 7,8 9,1 5 3 14 7 WSW 1013,4 13 0 0,0
11.01.2018 07:00:00 5,7 4,0 5,0 7,8 9,1 3 2 13 7 WSW 1012,5 20 0 0,0

tt = Température de l'air
td = dewpoint
tt 5cm = Température de l'air 5cm
tt -20cm = Température de l'air -20cm
tt -100cm = Température de l'air -100cm
ff = Vitesse du vent
fx = gusts
dd = Direction du vent
ppp = reduced air pressure
vv = visibility
sd = Ensoleillement
rr = Quantités de précipitations

stations d'obs. à proximité